FOSSASAT-1 (44829 NORAD) Tracking and Keplerian Element Data

This shows tracking and keplerian element data for the satellite.

Feedback or suggestion? Click here.




ElementValue
Catalog44829
NameFOSSASAT-1
Epoch Orbit742
Epoch Day22.86486484
Epoch Year2020
RAAN251.7492
Inclination96.9978
Eccentricity0.0040799
Argument of Perigee76.2163
Mean Anonmoly284.3634
Mean Motion15.6659865
Decay Rate0.00023908
L11 44829U 19084F 20022.86486484 .00023908 00000-0 21950-3 0 9995
L22 44829 96.9978 251.7492 0040799 76.2163 284.3634 15.66598650 7425

Live tracking and technical data element details for FOSSASAT-1 (NORAD 44829). FOSSASAT-1 can be tracked NOW for your location showing map with azimuth and elevation plus other details from your city location.

Track the satellite on the map from your city or location and see movement details for azimuth, elevation, latitude, longitude, range, height, and movement on the map or in text.







IsCatalogInMostPopularTable: catalog: 44829, numindb: 13
Update: records affected: 1



GetName: 44829 FOSSASAT-1

Hit Count: updated at: Fri, 24 Jan 2020 13:30:30 GMT